Vertical_Velocity
-2 0 -1 1 0 -1 -2 -0 -0 0 1 0 1 -1 2 -1 -1 4 7 2 3 3 3 4 4 3 3 2 2 1 3 1 2 -2 -1 -1 0 -0 0 0 0 1 0
2 -0 2 2 -0 -0 -1 -0 -0 1 -2 -0 1 -1 -1 -2 -1 0 -0 -1 -1 -1 1 0 -1 -1 1 2 0 -1 -0 3 6 8 7 0 4 3 4 0 2 4 4
0 2 0 -2 -4 -1 -2 1 0 0 -3 -1 0 -1 -1 0 -1 -1 -1 -1 -1 -1 -1 -1 -1 -1 -1 -1 -1 -3 -4 1 2 1 5 6 -1 2 2 8 7 4 4
1 1 -3 -3 -2 -1 -2 1 2 -0 -2 -1 -1 0 -1 -0 -0 -1 1 -0 -0 -1 -1 -0 1 0 -1 -5 3 2 2 2 3 5 4 6 6 5 4 5 10 9 9
-1 -4 -5 -3 -1 -1 -2 -1 1 -0 -2 -2 -2 -1 -1 -1 -1 -1 -0 2 1 0 -1 -1 -1 -1 -2 -1 -3 -1 4 3 4 2 -0 -2 -2 2 0 -2 -2 -0 3
-1 -1 -2 -3 -1 0 -0 -0 1 0 -1 -1 -1 -0 0 0 0 1 -0 -1 -0 1 1 1 0 1 1 1 1 0 -1 -1 0 0 -1 0 -0 -1 -1 -1 -2 -2 -1
-3 -2 -2 -1 -2 2 -0 1 0 -2 0 2 1 1 -1 -2 -2 -0 -0 -1 -1 -1 -1 -1 0 1 1 0 0 -0 -1 -1 -1 1 1 1 0 0 0 -1 -1 -0 -0
1 -1 -0 -1 -1 -1 -1 -2 0 -1 -0 -0 -1 -2 -1 -1 -1 -1 -1 -2 -1 -1 -0 0 0 -1 -2 -1 -0 -1 -0 1 1 2 2 2 1 -1 0 -0 -1 -2 -1
-0 1 -1 1 2 -3 -1 -1 -1 -1 -3 -3 -1 -2 -2 -2 -1 -2 -2 -0 -1 -0 2 2 -0 -2 -1 -0 0 -0 -0 -0 0 0 0 -0 -0 0 -2 -2 -1 -1 -1
-1 -3 -1 -1 -2 -2 -3 -3 0 -1 0 -0 -1 0 1 -1 -2 -2 -1 -2 -2 -1 -1 -2 -1 -1 -0 -0 -2 -2 -1 1 0 -0 0 -0 0 -0 -1 -1 -0 -1 -2
1 1 2 0 -2 -1 -0 -1 -1 -0 -1 0 0 0 -0 1 -1 -3 -4 -2 -1 -3 -1 -1 -2 -2 -2 -1 -0 -1 0 -0 1 1 -0 0 0 0 0 -0 -2 -3 -2
1 -0 0 -1 -3 -1 -2 -1 1 -0 -1 -2 -1 1 3 2 2 2 -0 -0 -0 -1 -1 -1 -1 -1 -2 -3 -1 -3 -1 1 -2 0 1 1 1 2 1 0 -0 1 -1
-1 -0 1 1 -1 -0 -0 -3 -1 -2 -1 -1 -0 -1 0 -0 0 -1 0 -0 1 -1 -0 0 -0 -1 -2 -1 -1 1 -1 0 -0 2 1 2 1 1 1 0 -0 -0 -1
-6 1 2 0 1 -1 -1 -1 0 -1 0 -1 -1 -0 2 1 0 -2 0 2 -1 -1 -2 -2 -2 -1 -0 0 1 1 0 -1 -1 1 0 1 -1 0 -0 -1 -1 -2 -0
2 2 1 0 -1 -0 2 1 -0 -2 -2 -0 0 2 2 2 1 -0 -1 2 -1 -1 -0 -1 0 -1 -1 -3 2 2 0 1 1 -0 -1 -0 -1 -1 -3 -3 -2 -3 -6
0 -1 -1 -1 1 4 2 2 2 -2 -2 -0 -1 1 0 1 -1 -1 1 1 2 1 -1 -1 0 -2 2 3 -0 2 1 0 0 1 0 -1 -2 -2 -0 -1 -4 -4 -5
-2 -1 -2 0 1 -0 1 1 -0 0 1 -1 1 0 -0 2 3 3 -0 -1 0 -1 -0 -0 2 1 -2 4 3 2 2 2 1 -1 -1 -1 -1 -2 -3 -4 -4 -5 -5
-1 -1 0 1 -1 -1 1 -1 1 0 1 1 -0 0 1 0 -0 2 1 1 1 -1 -0 2 -0 -1 2 -0 1 2 -0 -1 -1 2 -1 -2 -3 -3 -3 -4 -4 -4 -2
1 2 1 1 0 1 0 -2 -1 -0 -2 -1 -2 -0 -0 0 -0 0 -1 0 -1 -0 -1 2 1 1 2 1 3 3 3 2 1 -1 0 -2 -3 -3 -5 -4 -3 -2 -1
2 3 1 1 -0 -1 -2 -1 -0 -0 1 1 -2 -1 -1 -2 -1 1 -1 -1 -2 1 -1 -1 2 0 2 4 1 0 -1 -1 -2 0 -1 -2 -3 -3 -4 -3 -2 -1 -2
-0 -0 -1 -1 -2 -3 -3 -3 -4 -3 -1 0 0 1 1 1 1 0 1 -0 1 -0 -0 -0 2 1 2 2 4 3 -0 -0 1 -1 -2 -3 -2 -3 -3 -3 -1 -2 -3
1 -1 -1 -1 -1 -1 -1 0 0 1 -0 -1 -1 -0 -0 -0 -1 -1 -1 1 1 1 3 1 3 3 3 2 -0 0 2 1 -0 -0 -2 -2 -1 -2 -3 -2 -1 -2 -2
-2 -3 -2 -2 0 1 -0 -1 -1 -3 -3 -2 -3 -3 -0 0 1 1 -0 2 1 -0 -1 1 -2 -2 -1 2 3 1 0 1 0 -0 -2 -1 -2 -2 -2 -0 -0 -0 -0
-6 -1 -1 -1 -2 -3 -3 -1 -2 -3 -3 -3 -2 -1 -0 -1 -1 2 0 -1 -2 -1 0 -2 -2 -0 2 1 2 1 1 0 0 -0 -1 -1 -2 -2 -1 -0 -1 0 0
-2 -1 -0 -1 -1 -0 -2 -0 -2 -3 -3 -2 -1 -1 -1 0 1 1 0 0 -1 -1 -1 1 2 3 1 1 -0 -0 2 -1 1 -0 -0 -1 -1 -1 -0 0 0 1 -0
0 -3 -2 -0 -1 -1 0 -1 -2 -2 -2 -1 -1 -1 -1 -1 -2 -3 -1 0 -1 0 0 1 4 2 1 1 1 -0 -1 0 0 -1 -1 -0 -0 -0 1 1 1 1 -0
Height
5872 5872 5871 5868 5866 5862 5858 5855 5851 5849 5847 5844 5843 5842 5839 5836 5834 5833 5832 5832 5833 5834 5835 5836 5838 5839 5841 5842 5844 5844 5844 5845 5845 5845 5845 5845 5845 5845 5844 5844 5844 5843 5843
5870 5869 5868 5866 5864 5860 5857 5854 5850 5848 5846 5845 5844 5842 5839 5837 5835 5833 5831 5831 5831 5832 5832 5833 5834 5835 5836 5837 5837 5838 5839 5838 5838 5838 5837 5836 5837 5836 5836 5837 5836 5836 5835
5866 5866 5864 5864 5862 5859 5856 5854 5850 5848 5846 5846 5845 5843 5841 5838 5836 5833 5832 5831 5830 5829 5829 5830 5830 5832 5833 5833 5833 5833 5832 5831 5830 5830 5830 5829 5828 5829 5828 5828 5827 5826 5825
5862 5862 5862 5861 5860 5857 5854 5852 5850 5848 5846 5845 5844 5843 5842 5839 5837 5834 5831 5830 5829 5828 5827 5828 5828 5829 5830 5829 5827 5825 5825 5824 5824 5824 5823 5822 5822 5821 5820 5818 5818 5817 5815
5859 5859 5859 5858 5857 5855 5852 5850 5849 5847 5846 5845 5843 5842 5841 5839 5837 5834 5831 5829 5828 5827 5826 5826 5826 5826 5826 5825 5823 5822 5821 5820 5819 5818 5817 5817 5815 5813 5812 5810 5809 5807 5806
5857 5856 5856 5855 5853 5852 5851 5849 5847 5846 5845 5844 5842 5841 5839 5838 5836 5833 5831 5829 5827 5826 5825 5823 5822 5821 5821 5820 5819 5817 5816 5815 5814 5812 5811 5809 5808 5807 5805 5804 5802 5801 5799
5854 5851 5850 5851 5850 5850 5850 5848 5846 5845 5844 5842 5840 5839 5838 5837 5835 5832 5830 5828 5826 5824 5823 5822 5820 5818 5817 5816 5814 5813 5811 5809 5808 5806 5804 5803 5801 5799 5797 5795 5794 5792 5791
5851 5849 5846 5846 5847 5846 5846 5845 5843 5842 5841 5839 5838 5837 5837 5835 5833 5831 5828 5825 5823 5821 5819 5817 5815 5813 5812 5810 5808 5806 5804 5802 5800 5798 5796 5795 5792 5790 5788 5787 5785 5783 5782
5848 5846 5844 5843 5842 5841 5841 5840 5840 5839 5837 5835 5834 5833 5832 5831 5829 5826 5825 5822 5819 5816 5814 5812 5809 5807 5804 5802 5799 5797 5796 5794 5793 5791 5790 5788 5785 5783 5781 5779 5777 5774 5772
5845 5842 5839 5838 5838 5837 5836 5834 5834 5833 5831 5829 5828 5826 5825 5824 5823 5821 5819 5816 5814 5812 5808 5806 5803 5801 5798 5795 5792 5790 5788 5786 5784 5782 5781 5778 5776 5774 5772 5771 5769 5767 5765
5839 5837 5836 5836 5834 5832 5830 5828 5827 5826 5824 5823 5821 5819 5818 5817 5815 5813 5811 5809 5806 5804 5802 5799 5796 5793 5790 5787 5785 5782 5780 5778 5775 5773 5772 5770 5768 5766 5764 5763 5761 5758 5756
5834 5832 5832 5832 5829 5827 5824 5822 5821 5819 5817 5816 5815 5813 5812 5810 5809 5806 5804 5801 5798 5795 5794 5791 5788 5786 5783 5780 5777 5774 5772 5769 5768 5766 5765 5763 5761 5759 5757 5755 5753 5750 5747
5828 5827 5826 5825 5822 5820 5818 5816 5815 5812 5810 5808 5808 5806 5804 5803 5801 5798 5796 5793 5791 5788 5785 5782 5779 5777 5775 5772 5769 5766 5765 5762 5760 5759 5757 5755 5753 5751 5749 5746 5743 5741 5737
5819 5821 5819 5817 5815 5813 5811 5809 5807 5805 5804 5801 5800 5797 5796 5794 5793 5790 5787 5784 5781 5779 5777 5774 5771 5768 5765 5763 5761 5759 5757 5755 5753 5751 5749 5746 5744 5741 5738 5735 5733 5729 5725
5814 5813 5811 5810 5808 5806 5804 5802 5799 5797 5796 5793 5790 5789 5788 5785 5783 5781 5778 5775 5773 5770 5767 5763 5761 5758 5756 5754 5752 5751 5749 5747 5745 5743 5740 5737 5735 5732 5729 5725 5721 5717 5713
5807 5806 5804 5803 5800 5798 5796 5794 5793 5789 5787 5785 5782 5780 5778 5776 5774 5771 5768 5766 5762 5760 5757 5754 5751 5749 5748 5745 5744 5743 5741 5739 5736 5734 5731 5729 5726 5722 5719 5714 5710 5705 5699
5799 5798 5796 5794 5792 5790 5788 5785 5782 5779 5778 5776 5774 5771 5769 5766 5763 5761 5759 5756 5752 5750 5747 5745 5742 5740 5739 5737 5735 5734 5732 5730 5728 5726 5722 5719 5716 5712 5708 5703 5698 5692 5686
5790 5788 5787 5785 5783 5780 5778 5775 5773 5771 5768 5766 5764 5762 5759 5756 5753 5751 5748 5744 5742 5740 5738 5735 5733 5731 5729 5728 5727 5725 5723 5721 5719 5716 5713 5709 5705 5701 5696 5691 5686 5681 5675
5781 5780 5778 5775 5773 5771 5768 5765 5763 5761 5759 5756 5754 5751 5748 5746 5743 5740 5737 5735 5732 5730 5728 5725 5723 5722 5720 5718 5717 5715 5713 5712 5709 5707 5703 5699 5694 5690 5685 5681 5676 5671 5666
5772 5770 5768 5765 5763 5761 5759 5757 5754 5752 5749 5746 5743 5741 5738 5735 5732 5729 5727 5725 5722 5719 5716 5714 5712 5710 5709 5707 5706 5704 5702 5702 5700 5696 5692 5688 5684 5680 5675 5671 5667 5663 5659
5762 5761 5758 5756 5753 5751 5750 5748 5745 5743 5740 5736 5733 5730 5728 5724 5722 5719 5716 5713 5710 5707 5704 5702 5699 5698 5697 5696 5696 5694 5692 5690 5688 5685 5681 5678 5674 5670 5666 5663 5659 5655 5652
5753 5750 5748 5746 5744 5742 5740 5737 5734 5731 5727 5725 5722 5719 5716 5713 5710 5708 5704 5701 5698 5695 5692 5690 5689 5689 5688 5688 5686 5683 5681 5679 5677 5674 5670 5666 5663 5660 5657 5654 5651 5648 5645
5743 5741 5739 5736 5734 5732 5729 5727 5724 5722 5718 5714 5711 5709 5705 5701 5697 5694 5691 5688 5686 5683 5682 5681 5680 5679 5679 5678 5675 5672 5670 5668 5665 5662 5659 5655 5653 5650 5648 5645 5643 5641 5638
5735 5732 5730 5728 5725 5723 5721 5719 5716 5712 5709 5706 5701 5698 5694 5691 5687 5685 5682 5679 5677 5676 5675 5674 5673 5671 5669 5666 5664 5661 5659 5656 5653 5651 5648 5645 5643 5641 5638 5636 5634 5632 5630
5726 5724 5722 5720 5718 5716 5713 5710 5707 5703 5699 5695 5691 5687 5684 5681 5679 5677 5675 5673 5670 5668 5667 5665 5663 5661 5658 5655 5651 5649 5646 5644 5641 5639 5636 5634 5632 5630 5629 5627 5625 5623 5621
5718 5716 5715 5712 5710 5707 5703 5700 5697 5693 5690 5686 5683 5679 5676 5674 5672 5669 5666 5664 5661 5658 5656 5653 5651 5648 5645 5642 5639 5636 5633 5631 5629 5626 5624 5622 5621 5619 5618 5616 5615 5613 5612